�N����,����,�~����,�C��,���x,�C��,����,���ϕ���,�ő�u�ԕ���,�ő厞����,���˗�,�I�_���x,�n�����x,�ő啗���N��,DTYPE
"21/04/10","00:10",0.0,2.6,79.8,1023.2,306.8,2.1,2.6,320.6,0.00,-0.5,130.0,"00:06:24",1
"21/04/10","00:20",0.0,2.8,80.6,1023.0,319.3,3.0,4.4,329.5,0.00,-0.2,130.0,"00:14:16",1
"21/04/10","00:30",0.0,2.8,81.3,1023.0,319.3,3.1,4.1,317.0,0.00,0.0,130.0,"00:23:54",1
"21/04/10","00:40",0.0,2.8,81.8,1023.0,320.0,3.1,4.0,322.9,0.00,0.0,130.0,"00:31:06",1
"21/04/10","00:50",0.0,2.9,82.0,1023.2,322.0,3.4,4.3,322.6,0.00,0.2,130.0,"00:43:04",1
"21/04/10","01:00",0.0,2.8,82.0,1023.4,322.9,2.7,4.3,337.2,0.00,0.1,130.0,"00:50:40",1
"21/04/10","01:10",0.0,2.9,81.9,1023.2,323.4,3.6,5.2,340.9,0.00,0.2,130.0,"01:06:26",1
"21/04/10","01:20",0.0,2.8,81.6,1023.2,325.7,2.6,4.8,342.1,0.00,0.0,130.0,"01:10:08",1
"21/04/10","01:30",0.0,2.8,81.7,1022.7,325.3,3.2,4.5,319.6,0.00,0.0,130.0,"01:23:04",1
"21/04/10","01:40",0.0,2.8,81.7,1023.2,325.2,3.4,5.0,337.0,0.00,0.0,130.0,"01:38:14",1
"21/04/10","01:50",0.0,2.7,81.6,1023.0,318.4,3.0,3.7,329.9,0.00,-0.1,130.0,"01:44:08",1
"21/04/10","02:00",0.0,2.5,81.9,1023.0,326.0,3.2,4.5,332.6,0.00,-0.2,130.0,"01:58:08",1
"21/04/10","02:10",0.0,2.4,82.3,1022.7,329.0,3.0,4.0,323.2,0.00,-0.3,130.0,"02:00:40",1
"21/04/10","02:20",0.0,2.3,82.8,1023.0,323.7,2.7,3.9,310.3,0.00,-0.3,130.0,"02:16:02",1
"21/04/10","02:30",0.0,2.3,83.3,1022.5,323.9,2.6,4.3,324.1,0.00,-0.2,130.0,"02:24:42",1
"21/04/10","02:40",0.0,2.2,83.7,1022.7,324.9,2.5,3.4,330.3,0.00,-0.2,130.0,"02:31:54",1
"21/04/10","02:50",0.0,2.2,84.0,1023.0,321.9,2.6,4.1,330.5,0.00,-0.2,130.0,"02:47:46",1
"21/04/10","03:00",0.0,2.3,84.4,1023.0,324.7,3.5,4.9,326.4,0.00,0.0,130.0,"02:57:16",1
"21/04/10","03:10",0.0,2.4,84.5,1023.2,311.5,3.7,5.1,333.1,0.00,0.1,130.0,"03:01:56",1
"21/04/10","03:20",0.0,2.3,84.5,1023.2,326.7,2.7,4.5,327.9,0.00,0.0,130.0,"03:12:02",1
"21/04/10","03:30",0.0,2.3,84.7,1023.0,331.0,2.7,3.9,328.1,0.00,0.0,130.0,"03:26:04",1
"21/04/10","03:40",0.0,2.3,84.8,1023.2,337.8,2.7,4.0,336.2,0.00,0.0,130.0,"03:37:08",1
"21/04/10","03:50",0.0,2.2,84.9,1023.4,331.5,2.8,4.1,340.0,0.00,0.0,130.0,"03:41:18",1
"21/04/10","04:00",0.0,2.1,85.1,1023.4,326.0,3.5,4.4,328.0,0.00,-0.1,130.0,"03:55:50",1
"21/04/10","04:10",0.0,2.1,85.4,1023.4,324.5,3.6,5.4,333.5,0.00,-0.1,130.0,"04:03:38",1
"21/04/10","04:20",0.0,2.1,85.6,1023.4,325.1,3.1,4.4,319.7,0.00,0.0,130.0,"04:16:18",1
"21/04/10","04:30",0.0,2.2,85.7,1023.4,324.2,3.2,4.5,323.8,0.00,0.1,130.0,"04:23:14",1
"21/04/10","04:40",0.0,2.1,85.8,1023.4,324.9,2.5,4.2,316.4,0.00,0.0,130.0,"04:31:20",1
"21/04/10","04:50",0.0,1.9,86.1,1023.9,315.9,2.8,3.4,319.0,0.00,-0.1,130.0,"04:45:12",1
"21/04/10","05:00",0.0,1.9,86.2,1023.7,318.3,2.7,4.1,321.1,0.00,-0.1,130.0,"04:53:04",1
"21/04/10","05:10",0.0,1.8,86.3,1023.9,300.6,1.8,2.7,319.7,0.00,-0.2,130.0,"05:07:28",1
"21/04/10","05:20",0.0,1.7,86.6,1023.7,307.8,2.5,3.6,319.6,0.00,-0.3,130.0,"05:16:16",1
"21/04/10","05:30",0.0,1.6,86.8,1023.7,299.1,2.0,3.1,310.0,0.00,-0.3,130.0,"05:20:24",1
"21/04/10","05:40",0.0,1.4,87.0,1023.7,314.2,1.7,2.8,329.9,0.00,-0.5,130.0,"05:31:20",1
"21/04/10","05:50",0.0,1.2,87.2,1023.4,321.7,2.1,2.6,317.9,0.00,-0.6,130.0,"05:44:40",1
"21/04/10","06:00",0.0,1.3,87.6,1023.7,316.7,2.0,2.5,329.9,0.00,-0.5,130.0,"05:51:44",1
"21/04/10","06:10",0.0,1.5,88.0,1023.9,285.9,1.7,2.2,275.4,0.00,-0.2,130.0,"06:05:52",1
"21/04/10","06:20",0.0,2.0,88.2,1023.9,292.2,2.3,2.8,306.4,0.00,0.3,130.0,"06:17:12",1
"21/04/10","06:30",0.0,2.4,88.3,1024.1,296.0,2.5,2.9,315.4,0.01,0.7,130.0,"06:29:04",1
"21/04/10","06:40",0.0,2.8,88.3,1024.4,316.4,2.8,4.2,320.0,0.02,1.1,130.0,"06:37:00",1
"21/04/10","06:50",0.0,3.5,88.1,1024.6,309.1,2.2,3.1,316.0,0.03,1.8,130.0,"06:41:10",1
"21/04/10","07:00",0.0,4.3,87.3,1025.1,304.3,2.3,3.7,336.8,0.04,2.4,130.0,"06:55:34",1
"21/04/10","07:10",0.0,5.0,85.9,1025.3,316.0,2.7,3.6,326.4,0.06,2.9,130.0,"07:01:34",1
"21/04/10","07:20",0.0,6.0,84.0,1025.8,302.0,2.2,3.2,332.7,0.09,3.5,130.0,"07:13:12",1
"21/04/10","07:30",0.0,6.5,80.8,1026.3,316.7,2.3,4.1,323.9,0.11,3.5,130.0,"07:29:46",1
"21/04/10","07:40",0.0,7.2,77.4,1026.0,311.8,2.2,3.2,327.4,0.14,3.6,130.0,"07:30:16",1
"21/04/10","07:50",0.0,8.1,73.5,1026.5,289.1,1.6,2.8,314.9,0.17,3.7,130.0,"07:42:00",1
"21/04/10","08:00",0.0,8.4,68.8,1026.5,291.9,1.8,3.3,312.7,0.20,3.0,130.0,"07:54:40",1
"21/04/10","08:10",0.0,9.1,66.6,1027.0,281.2,1.8,3.1,260.2,0.23,3.3,130.0,"08:04:24",1
"21/04/10","08:20",0.0,9.4,63.8,1026.7,329.2,3.2,7.7,330.4,0.26,2.9,130.0,"08:14:00",1
"21/04/10","08:30",0.0,9.9,61.2,1027.0,340.4,2.5,4.5,296.2,0.29,2.8,130.0,"08:21:12",1
"21/04/10","08:40",0.0,10.3,58.3,1027.0,340.2,2.5,5.4,334.5,0.31,2.5,130.0,"08:37:36",1
"21/04/10","08:50",0.0,10.6,56.0,1027.0,358.3,2.2,6.3,333.9,0.34,2.2,130.0,"08:41:28",1
"21/04/10","09:00",0.0,10.9,54.4,1026.7,352.7,2.3,5.7,338.3,0.37,2.1,130.0,"08:56:32",1
"21/04/10","09:10",0.0,10.8,53.6,1027.0,350.2,2.7,5.8,335.9,0.39,1.8,130.0,"09:07:44",1
"21/04/10","09:20",0.0,11.2,53.5,1026.7,357.9,2.5,8.1,339.7,0.42,2.2,130.0,"09:17:20",1
"21/04/10","09:30",0.0,11.9,53.5,1026.7,0.3,1.8,4.2,27.1,0.44,2.8,130.0,"09:21:20",1
"21/04/10","09:40",0.0,12.5,51.4,1026.7,6.2,1.5,5.0,5.1,0.46,2.8,130.0,"09:36:00",1
"21/04/10","09:50",0.0,12.7,49.4,1026.7,6.8,1.3,4.2,1.3,0.48,2.4,130.0,"09:40:56",1
"21/04/10","10:00",0.0,12.8,50.6,1026.5,354.8,2.1,4.8,332.4,0.50,2.9,130.0,"09:53:36",1
"21/04/10","10:10",0.0,12.8,51.7,1026.7,336.5,2.8,5.4,331.9,0.52,3.2,130.0,"10:07:04",1
"21/04/10","10:20",0.0,12.9,50.5,1026.7,331.4,3.0,7.8,333.5,0.54,2.9,130.0,"10:19:28",1
"21/04/10","10:30",0.0,12.9,51.8,1026.5,327.4,3.1,5.2,325.1,0.55,3.3,130.0,"10:29:52",1
"21/04/10","10:40",0.0,13.2,52.4,1026.5,342.4,2.7,5.6,345.4,0.57,3.7,130.0,"10:32:00",1
"21/04/10","10:50",0.0,13.1,51.5,1026.5,333.9,3.6,7.0,330.6,0.58,3.4,130.0,"10:48:32",1
"21/04/10","11:00",0.0,12.9,50.9,1026.3,330.1,3.9,7.8,338.4,0.59,3.0,130.0,"10:56:40",1
"21/04/10","11:10",0.0,13.1,50.9,1026.3,342.8,3.7,8.6,350.2,0.60,3.2,130.0,"11:06:16",1
"21/04/10","11:20",0.0,13.3,51.3,1026.0,333.9,4.5,8.0,333.4,0.61,3.5,130.0,"11:19:52",1
"21/04/10","11:30",0.0,14.0,51.5,1026.3,323.2,3.6,8.2,341.1,0.62,4.2,130.0,"11:20:16",1
"21/04/10","11:40",0.0,13.7,49.5,1026.3,338.7,4.1,9.0,348.2,0.62,3.4,130.0,"11:38:00",1
"21/04/10","11:50",0.0,13.8,49.2,1025.6,326.7,4.1,8.7,331.5,0.63,3.4,130.0,"11:41:52",1
"21/04/10","12:00",0.0,14.1,47.9,1026.0,321.0,4.0,7.4,334.1,0.63,3.3,130.0,"11:58:56",1
"21/04/10","12:10",0.0,14.4,46.1,1026.0,333.6,3.2,6.3,321.6,0.63,3.0,130.0,"12:07:52",1
"21/04/10","12:20",0.0,14.5,45.6,1025.3,338.5,3.2,6.6,320.3,0.64,2.9,130.0,"12:11:20",1
"21/04/10","12:30",0.0,14.3,44.8,1025.8,334.3,4.4,8.3,344.8,0.64,2.5,130.0,"12:28:48",1
"21/04/10","12:40",0.0,14.6,45.3,1025.3,313.6,4.5,10.1,330.7,0.63,2.9,130.0,"12:33:28",1
"21/04/10","12:50",0.0,14.9,45.3,1025.8,332.5,4.5,7.3,329.3,0.63,3.2,130.0,"12:46:24",1
"21/04/10","13:00",0.0,15.1,42.9,1025.3,329.7,3.9,6.7,342.0,0.63,2.6,130.0,"12:58:16",1
"21/04/10","13:10",0.0,15.0,43.1,1025.1,331.1,4.9,7.8,315.8,0.62,2.6,130.0,"13:06:32",1
"21/04/10","13:20",0.0,15.5,43.5,1025.3,328.7,3.6,6.4,318.7,0.61,3.2,130.0,"13:11:20",1
"21/04/10","13:30",0.0,15.7,43.5,1025.1,333.5,3.6,8.0,320.1,0.60,3.4,130.0,"13:28:40",1
"21/04/10","13:40",0.0,15.4,41.1,1024.9,325.0,3.6,7.2,326.7,0.59,2.3,130.0,"13:36:08",1
"21/04/10","13:50",0.0,15.7,41.9,1024.9,318.8,3.9,7.5,329.9,0.58,2.8,130.0,"13:47:28",1
"21/04/10","14:00",0.0,15.7,41.0,1024.6,330.7,3.7,7.3,328.3,0.56,2.5,130.0,"13:52:16",1
"21/04/10","14:10",0.0,15.7,42.0,1024.9,336.1,3.7,8.2,319.2,0.55,2.9,130.0,"14:08:40",1
"21/04/10","14:20",0.0,16.2,43.2,1023.9,342.9,3.1,5.8,1.8,0.54,3.7,130.0,"14:13:04",1
"21/04/10","14:30",0.0,16.1,41.4,1024.1,335.7,3.5,6.2,343.7,0.52,3.0,130.0,"14:22:24",1
"21/04/10","14:40",0.0,15.8,42.3,1024.4,316.1,4.6,6.3,328.5,0.50,3.1,130.0,"14:30:40",1
"21/04/10","14:50",0.0,16.2,39.7,1024.1,335.5,3.4,5.8,311.2,0.48,2.5,130.0,"14:42:24",1
"21/04/10","15:00",0.0,15.7,38.8,1023.9,336.8,4.6,8.8,339.2,0.46,1.8,130.0,"14:53:20",1
"21/04/10","15:10",0.0,16.2,39.1,1023.7,335.8,3.0,6.0,328.9,0.44,2.3,130.0,"15:09:12",1
"21/04/10","15:20",0.0,16.2,41.0,1024.1,333.8,4.1,7.0,344.7,0.42,3.0,130.0,"15:14:24",1
"21/04/10","15:30",0.0,15.6,37.7,1024.1,338.1,4.4,7.2,338.4,0.39,1.3,130.0,"15:28:32",1
"21/04/10","15:40",0.0,15.6,37.9,1024.1,337.6,4.0,8.2,340.8,0.36,1.3,130.0,"15:36:16",1
"21/04/10","15:50",0.0,15.6,39.8,1024.1,335.3,3.9,7.2,327.9,0.33,2.0,130.0,"15:43:44",1
"21/04/10","16:00",0.0,15.4,37.8,1023.7,337.4,3.9,7.2,340.4,0.31,1.1,130.0,"15:55:36",1
"21/04/10","16:10",0.0,15.4,38.9,1023.9,333.3,4.0,7.1,318.8,0.28,1.5,130.0,"16:04:40",1
"21/04/10","16:20",0.0,15.0,37.9,1023.9,339.6,4.2,8.2,318.7,0.24,0.8,130.0,"16:17:52",1
"21/04/10","16:30",0.0,15.1,40.2,1024.1,338.0,3.7,6.4,335.1,0.22,1.7,130.0,"16:22:00",1
"21/04/10","16:40",0.0,15.2,40.1,1024.1,335.7,3.9,6.7,344.1,0.21,1.8,130.0,"16:32:08",1
"21/04/10","16:50",0.0,15.1,41.2,1024.6,338.2,3.5,6.6,329.5,0.16,2.1,130.0,"16:46:08",1
"21/04/10","17:00",0.0,14.8,40.8,1024.4,330.3,3.7,6.8,336.9,0.13,1.7,130.0,"16:58:00",1
"21/04/10","17:10",0.0,14.3,41.4,1024.4,332.4,4.6,7.3,348.8,0.11,1.4,130.0,"17:06:26",1
"21/04/10","17:20",0.0,13.9,41.7,1024.1,332.3,4.6,7.0,337.3,0.08,1.2,130.0,"17:16:48",1
"21/04/10","17:30",0.0,13.7,42.9,1024.4,339.1,4.6,7.9,341.0,0.07,1.4,130.0,"17:20:48",1
"21/04/10","17:40",0.0,13.1,44.5,1024.4,338.8,4.4,7.3,319.6,0.04,1.3,130.0,"17:30:16",1
"21/04/10","17:50",0.0,12.9,46.1,1024.4,330.1,4.4,7.5,335.0,0.03,1.6,130.0,"17:43:52",1
"21/04/10","18:00",0.0,12.4,47.1,1024.1,327.5,4.5,6.6,337.6,0.02,1.5,130.0,"17:50:24",1
"21/04/10","18:10",0.0,12.0,48.7,1024.9,331.8,3.6,5.7,315.6,0.01,1.6,130.0,"18:00:16",1
"21/04/10","18:20",0.0,11.7,49.6,1024.6,335.5,3.5,6.7,337.9,0.00,1.6,130.0,"18:14:32",1
"21/04/10","18:30",0.0,11.3,51.0,1024.9,326.4,3.7,7.5,325.0,0.00,1.6,130.0,"18:28:54",1
"21/04/10","18:40",0.0,11.0,51.8,1025.1,332.0,4.2,7.8,310.2,0.00,1.5,130.0,"18:38:28",1
"21/04/10","18:50",0.0,10.6,52.5,1024.9,330.9,4.1,7.0,328.1,0.00,1.3,130.0,"18:41:12",1
"21/04/10","19:00",0.0,10.3,53.9,1024.9,329.8,4.2,6.2,325.1,0.00,1.4,130.0,"18:53:30",1
"21/04/10","19:10",0.0,10.0,55.8,1024.9,332.9,4.0,7.1,325.8,0.00,1.6,130.0,"19:00:48",1
"21/04/10","19:20",0.0,9.7,58.1,1025.3,335.2,4.5,7.8,331.1,0.00,1.9,130.0,"19:18:10",1
"21/04/10","19:30",0.0,9.6,59.7,1025.1,332.0,4.6,7.3,320.6,0.00,2.2,130.0,"19:21:28",1
"21/04/10","19:40",0.0,9.3,61.1,1025.6,336.4,4.0,7.2,320.1,0.00,2.2,130.0,"19:37:20",1
"21/04/10","19:50",0.0,9.1,62.7,1025.6,336.8,4.6,7.3,339.1,0.00,2.4,130.0,"19:46:00",1
"21/04/10","20:00",0.0,8.9,64.2,1025.6,336.5,4.2,6.7,332.9,0.00,2.6,130.0,"19:51:36",1
"21/04/10","20:10",0.0,8.8,65.4,1025.8,336.7,4.4,8.1,338.0,0.00,2.7,130.0,"20:06:16",1
"21/04/10","20:20",0.0,8.5,66.4,1026.0,335.2,4.2,6.6,338.2,0.00,2.6,130.0,"20:18:00",1
"21/04/10","20:30",0.0,8.3,67.1,1026.0,330.9,3.5,7.3,313.2,0.00,2.6,130.0,"20:22:32",1
"21/04/10","20:40",0.0,8.1,67.8,1026.3,334.4,2.7,4.4,344.1,0.00,2.6,130.0,"20:34:08",1
"21/04/10","20:50",0.0,7.9,68.4,1026.5,325.0,3.0,6.2,319.0,0.00,2.5,130.0,"20:47:20",1
"21/04/10","21:00",0.0,7.8,69.0,1026.7,319.2,3.2,5.9,333.3,0.00,2.5,130.0,"20:54:08",1
"21/04/10","21:10",0.0,7.5,69.6,1026.7,313.0,2.5,3.9,324.5,0.00,2.3,130.0,"21:03:20",1
"21/04/10","21:20",0.0,7.4,70.3,1026.7,315.2,2.2,4.5,295.3,0.00,2.4,130.0,"21:15:20",1
"21/04/10","21:30",0.0,7.3,70.8,1027.0,317.7,2.6,5.7,321.7,0.00,2.4,130.0,"21:25:44",1
"21/04/10","21:40",0.0,7.2,71.3,1026.7,292.9,2.0,3.4,300.0,0.00,2.4,130.0,"21:36:24",1
"21/04/10","21:50",0.0,6.9,71.7,1027.2,288.3,2.2,3.5,306.9,0.00,2.2,130.0,"21:45:12",1
"21/04/10","22:00",0.0,7.2,72.0,1026.7,314.1,3.9,6.0,310.7,0.00,2.5,130.0,"21:53:44",1
"21/04/10","22:10",0.0,7.2,71.9,1027.0,325.7,3.9,6.3,339.1,0.00,2.5,130.0,"22:00:56",1
"21/04/10","22:20",0.0,7.0,72.2,1027.0,322.0,3.2,5.7,323.4,0.00,2.4,130.0,"22:14:48",1
"21/04/10","22:30",0.0,6.8,72.6,1027.0,327.1,3.4,5.4,325.9,0.00,2.3,130.0,"22:20:32",1
"21/04/10","22:40",0.0,6.6,73.2,1027.0,324.6,3.1,4.9,334.4,0.00,2.2,130.0,"22:30:48",1
"21/04/10","22:50",0.0,6.6,73.4,1027.5,296.0,2.7,4.2,325.3,0.00,2.2,130.0,"22:47:04",1
"21/04/10","23:00",0.0,6.5,73.7,1027.0,296.2,2.7,4.2,325.8,0.00,2.2,130.0,"22:52:48",1
"21/04/10","23:10",0.0,6.4,74.1,1027.2,275.8,2.1,2.8,307.6,0.00,2.2,130.0,"23:00:32",1
"21/04/10","23:20",0.0,6.2,74.7,1027.2,285.0,2.3,3.1,315.2,0.00,2.1,130.0,"23:19:12",1
"21/04/10","23:30",0.0,6.2,75.3,1027.0,298.2,2.7,3.6,321.0,0.00,2.2,130.0,"23:28:56",1
"21/04/10","23:40",0.0,6.3,75.8,1027.2,314.2,3.0,4.1,324.5,0.00,2.4,130.0,"23:39:36",1
"21/04/10","23:50",0.0,6.4,76.2,1027.5,320.4,3.9,5.1,324.3,0.00,2.6,130.0,"23:48:24",1
"21/04/10","24:00",0.0,6.3,76.6,1027.2,326.5,3.9,5.5,314.6,0.00,2.5,130.0,"23:52:00",1
